EZY129 EGKK-EGCC

Flight info

Callsign EZY129
Flight time N/A
Altitude 20000
Route LAM N57 WELIN T420 ELVOS
Aircraft A21N/M-SDE2E3FGHIRWXY/LB1

Departure

Time 2026-05-05 17:54
Airport London Gatwick Airport (EGKK)

Arrival

Time N/A
Airport Manchester Airport (EGCC)
Time Latitude Longitude Altitude Speed Heading
2026-05-05 17:17 51.16277 -0.18101 212 ft 0 kts 77°
2026-05-05 17:30 51.16276 -0.18105 208 ft 1 kts 77°
2026-05-05 17:30 51.16276 -0.18106 209 ft 0 kts 77°
2026-05-05 17:31 51.16276 -0.18107 209 ft 0 kts 77°
2026-05-05 17:31 51.16276 -0.18108 209 ft 0 kts 77°
2026-05-05 17:31 51.16276 -0.18107 208 ft 0 kts 77°
2026-05-05 17:32 51.16274 -0.18122 218 ft 3 kts 93°
2026-05-05 17:32 51.16281 -0.18147 212 ft 3 kts 139°
2026-05-05 17:32 51.16289 -0.18172 217 ft 2 kts 97°
2026-05-05 17:33 51.16296 -0.18199 218 ft 3 kts 151°
2026-05-05 17:33 51.16306 -0.18204 217 ft 0 kts 169°
2026-05-05 17:38 51.16312 -0.18206 218 ft 2 kts 169°
2026-05-05 17:38 51.16328 -0.18211 216 ft 2 kts 169°
2026-05-05 17:39 51.16333 -0.18212 208 ft 0 kts 169°
2026-05-05 17:40 51.16321 -0.18211 218 ft 7 kts 177°
2026-05-05 17:40 51.16263 -0.18223 208 ft 8 kts 182°
2026-05-05 17:40 51.16196 -0.18201 211 ft 13 kts 165°
2026-05-05 17:40 51.16090 -0.18168 211 ft 17 kts 167°
2026-05-05 17:41 51.15961 -0.18121 210 ft 20 kts 168°
2026-05-05 17:41 51.15842 -0.18083 208 ft 15 kts 168°
2026-05-05 17:41 51.15729 -0.18053 208 ft 18 kts 187°
2026-05-05 17:41 51.15665 -0.18217 216 ft 20 kts 258°
2026-05-05 17:42 51.15656 -0.18275 211 ft 0 kts 256°
2026-05-05 17:42 51.15656 -0.18276 211 ft 0 kts 256°
2026-05-05 17:43 51.15650 -0.18313 212 ft 7 kts 256°
2026-05-05 17:43 51.15624 -0.18363 217 ft 4 kts 182°
2026-05-05 17:43 51.15576 -0.18345 215 ft 12 kts 167°
2026-05-05 17:44 51.15473 -0.18308 210 ft 17 kts 167°
2026-05-05 17:44 51.15443 -0.18297 218 ft 5 kts 167°
2026-05-05 17:44 51.15389 -0.18278 208 ft 11 kts 167°
2026-05-05 17:44 51.15293 -0.18248 211 ft 17 kts 169°
2026-05-05 17:45 51.15176 -0.18266 210 ft 16 kts 227°
2026-05-05 17:45 51.15162 -0.18402 215 ft 13 kts 271°
2026-05-05 17:45 51.15149 -0.18574 208 ft 19 kts 261°
2026-05-05 17:45 51.15115 -0.18808 211 ft 24 kts 252°
2026-05-05 17:46 51.15081 -0.19087 212 ft 28 kts 259°
2026-05-05 17:46 51.15052 -0.19300 217 ft 31 kts 257°
2026-05-05 17:46 51.15015 -0.19568 217 ft 25 kts 257°
2026-05-05 17:46 51.14974 -0.19863 216 ft 30 kts 257°
2026-05-05 17:47 51.14925 -0.20217 210 ft 34 kts 257°
2026-05-05 17:47 51.14870 -0.20609 216 ft 37 kts 257°
2026-05-05 17:47 51.14819 -0.20973 210 ft 22 kts 257°
2026-05-05 17:47 51.14796 -0.21133 217 ft 10 kts 257°
2026-05-05 17:48 51.14764 -0.21198 215 ft 5 kts 194°
2026-05-05 17:48 51.14751 -0.21224 213 ft 5 kts 248°
2026-05-05 17:48 51.14739 -0.21309 216 ft 10 kts 271°
2026-05-05 17:48 51.14714 -0.21395 220 ft 7 kts 200°
2026-05-05 17:49 51.14664 -0.21364 220 ft 10 kts 146°
2026-05-05 17:49 51.14630 -0.21337 213 ft 0 kts 161°
2026-05-05 17:51 51.14628 -0.21336 212 ft 2 kts 161°
2026-05-05 17:51 51.14588 -0.21312 212 ft 10 kts 155°
2026-05-05 17:52 51.14523 -0.21197 216 ft 17 kts 102°
2026-05-05 17:52 51.14540 -0.21036 218 ft 0 kts 75°
2026-05-05 17:52 51.14542 -0.21028 218 ft 0 kts 75°
2026-05-05 17:53 51.14542 -0.21025 218 ft 2 kts 75°
2026-05-05 17:53 51.14583 -0.20779 216 ft 51 kts 75°
2026-05-05 17:53 51.14693 -0.19929 213 ft 106 kts 78°
2026-05-05 17:53 51.14889 -0.18445 217 ft 159 kts 78°
2026-05-05 17:54 51.15107 -0.16756 760 ft 150 kts 78°
2026-05-05 17:54 51.15363 -0.14911 859 ft 182 kts 77°
2026-05-05 17:54 51.15673 -0.12719 787 ft 221 kts 77°
2026-05-05 17:54 51.16016 -0.10252 1362 ft 231 kts 77°
2026-05-05 17:55 51.16400 -0.07778 2245 ft 230 kts 69°
2026-05-05 17:55 51.17147 -0.05531 3121 ft 231 kts 54°
2026-05-05 17:55 51.18108 -0.03460 3935 ft 234 kts 51°
2026-05-05 17:55 51.19115 -0.01408 4733 ft 236 kts 50°
2026-05-05 17:56 51.20153 0.00704 5539 ft 241 kts 49°
2026-05-05 17:56 51.21214 0.02870 5980 ft 257 kts 50°
2026-05-05 17:56 51.22327 0.05158 6073 ft 263 kts 50°
2026-05-05 17:56 51.23444 0.07467 6239 ft 262 kts 50°
2026-05-05 17:57 51.24500 0.09786 7019 ft 256 kts 57°
2026-05-05 17:57 51.25180 0.12401 7918 ft 256 kts 73°
2026-05-05 17:57 51.25570 0.15184 8718 ft 258 kts 76°
2026-05-05 17:57 51.25902 0.18031 9464 ft 262 kts 78°
2026-05-05 17:58 51.26230 0.20915 10166 ft 266 kts 78°
2026-05-05 17:58 51.26565 0.23836 10861 ft 268 kts 78°
2026-05-05 17:58 51.26907 0.26779 11605 ft 269 kts 78°
2026-05-05 17:58 51.27290 0.29713 12329 ft 271 kts 72°
2026-05-05 17:59 51.28070 0.32436 13055 ft 271 kts 53°
2026-05-05 17:59 51.29439 0.34561 13779 ft 274 kts 32°
2026-05-05 17:59 51.31218 0.35676 14337 ft 280 kts
2026-05-05 17:59 51.33163 0.35586 14778 ft 283 kts 347°
2026-05-05 18:00 51.35034 0.34591 15447 ft 284 kts 339°
2026-05-05 18:00 51.36866 0.33382 16057 ft 286 kts 338°
2026-05-05 18:00 51.38710 0.32142 16645 ft 289 kts 338°
2026-05-05 18:00 51.40599 0.30883 17231 ft 291 kts 338°
2026-05-05 18:01 51.42483 0.29640 17881 ft 292 kts 339°
2026-05-05 18:01 51.44390 0.28390 18493 ft 294 kts 339°
2026-05-05 18:01 51.46279 0.27156 18948 ft 299 kts 338°
2026-05-05 18:01 51.48221 0.25890 19423 ft 304 kts 338°
2026-05-05 18:02 51.50198 0.24600 19896 ft 308 kts 338°
2026-05-05 18:02 51.52190 0.23300 20420 ft 311 kts 338°
2026-05-05 18:02 51.54228 0.21970 20964 ft 313 kts 338°
2026-05-05 18:02 51.56266 0.20638 21393 ft 319 kts 338°
2026-05-05 18:03 51.58331 0.19289 21818 ft 325 kts 336°
2026-05-05 18:03 51.60442 0.17906 21946 ft 340 kts 336°
2026-05-05 18:03 51.62720 0.16406 21949 ft 357 kts 335°
2026-05-05 18:03 51.64860 0.14496 21931 ft 346 kts 323°
2026-05-05 18:04 51.66132 0.12890 21933 ft 341 kts 319°
2026-05-05 18:04 51.67875 0.10306 21939 ft 340 kts 314°
2026-05-05 18:04 51.69525 0.07582 21938 ft 339 kts 313°
2026-05-05 18:04 51.71141 0.04801 21939 ft 341 kts 312°
2026-05-05 18:05 51.72760 0.02002 21954 ft 341 kts 313°
2026-05-05 18:05 51.74391 -0.00789 21998 ft 341 kts 313°
2026-05-05 18:05 51.76028 -0.03551 21997 ft 340 kts 313°
2026-05-05 18:05 51.77666 -0.06287 22001 ft 340 kts 313°
2026-05-05 18:06 51.79354 -0.09084 22003 ft 340 kts 313°
2026-05-05 18:06 51.80446 -0.10890 22004 ft 340 kts 313°
2026-05-05 18:06 51.82665 -0.14552 22004 ft 340 kts 313°
2026-05-05 18:06 51.84316 -0.17280 21938 ft 339 kts 313°
2026-05-05 18:07 51.85964 -0.20011 21941 ft 339 kts 313°
2026-05-05 18:07 51.87600 -0.22727 21939 ft 339 kts 313°
2026-05-05 18:07 51.89238 -0.25451 21938 ft 339 kts 312°
2026-05-05 18:07 51.90887 -0.28195 21968 ft 339 kts 312°
2026-05-05 18:08 51.92518 -0.30911 22489 ft 335 kts 312°
2026-05-05 18:08 51.94147 -0.33628 22618 ft 334 kts 312°
2026-05-05 18:08 51.95769 -0.36337 22136 ft 334 kts 312°
2026-05-05 18:08 51.97389 -0.39047 21951 ft 337 kts 312°
2026-05-05 18:09 51.98128 -0.40286 21941 ft 338 kts 312°